KINEIS-4B

Last updated on Thu Sep 24 2026 00:03:12 GMT+0000 (Coordinated Universal Time)

1 63304U 25056E 26266.62307337 .00000974 00000+0 16177-3 0 9991 2 63304 97.9230 28.1489 0005111 356.4412 3.6759 14.72302463 81600
UTC large
Height (km)
Speed (km/s)
/
Latitude / Longitude
Inclination (degrees)
Orbital Period (minutes)
Azimuth
Elevation
Range (km)
Doppler Factor

Next 0 passes for location: London (51.5072 / 0.1276)

No passes found over London.
KINEIS-4B